TimeEDT,TemperatureF,Dew PointF,Humidity,Sea Level PressureIn,VisibilityMPH,Wind Direction,Wind SpeedMPH,Gust SpeedMPH,PrecipitationIn,Events,Conditions,WindDirDegrees,DateUTC
12:53 AM,57.0,39.9,53,30.03,10.0,WNW,6.9,-,N/A,,Clear,300,2013-03-13 04:53:00
1:53 AM,55.0,37.9,53,30.04,10.0,NW,9.2,-,N/A,,Clear,310,2013-03-13 05:53:00
2:53 AM,53.6,37.4,54,30.04,10.0,NW,6.9,-,N/A,,Clear,310,2013-03-13 06:53:00
3:53 AM,51.1,36.0,56,30.05,10.0,WNW,4.6,-,N/A,,Clear,300,2013-03-13 07:53:00
4:53 AM,48.9,36.0,61,30.06,10.0,WNW,6.9,-,N/A,,Clear,300,2013-03-13 08:53:00
5:53 AM,48.0,36.0,63,30.08,10.0,NW,8.1,-,N/A,,Clear,310,2013-03-13 09:53:00
6:53 AM,48.0,36.0,63,30.11,10.0,NW,6.9,-,N/A,,Clear,310,2013-03-13 10:53:00
7:53 AM,46.9,36.0,66,30.14,10.0,WNW,6.9,-,N/A,,Clear,300,2013-03-13 11:53:00
8:53 AM,50.0,37.0,61,30.17,10.0,Variable,4.6,-,N/A,,Clear,0,2013-03-13 12:53:00
9:53 AM,55.0,34.0,45,30.18,10.0,North,10.4,-,N/A,,Clear,350,2013-03-13 13:53:00
10:53 AM,57.9,30.9,36,30.19,10.0,North,10.4,17.3,N/A,,Clear,10,2013-03-13 14:53:00
11:53 AM,62.1,30.0,30,30.19,10.0,NNW,9.2,-,N/A,,Clear,330,2013-03-13 15:53:00
12:53 PM,64.0,26.1,24,30.17,10.0,Variable,4.6,19.6,N/A,,Clear,0,2013-03-13 16:53:00
1:53 PM,66.0,28.9,25,30.13,10.0,WNW,13.8,19.6,N/A,,Clear,300,2013-03-13 17:53:00
2:53 PM,66.9,27.0,22,30.10,10.0,West,11.5,19.6,N/A,,Clear,280,2013-03-13 18:53:00
3:53 PM,68.0,28.0,22,30.08,10.0,West,13.8,19.6,N/A,,Clear,280,2013-03-13 19:53:00
4:53 PM,66.9,27.0,22,30.07,10.0,West,11.5,21.9,N/A,,Clear,280,2013-03-13 20:53:00
5:53 PM,66.9,25.0,21,30.06,10.0,WNW,12.7,21.9,N/A,,Clear,290,2013-03-13 21:53:00
6:53 PM,64.0,26.1,24,30.07,10.0,West,12.7,19.6,N/A,,Clear,270,2013-03-13 22:53:00
7:53 PM,61.0,28.0,29,30.09,10.0,WNW,6.9,-,N/A,,Clear,290,2013-03-13 23:53:00
8:53 PM,59.0,30.0,33,30.11,10.0,WNW,4.6,-,N/A,,Clear,290,2013-03-14 00:53:00
9:53 PM,55.9,32.0,40,30.12,10.0,West,4.6,-,N/A,,Clear,280,2013-03-14 01:53:00
10:53 PM,55.9,30.9,39,30.15,10.0,Variable,6.9,-,N/A,,Clear,0,2013-03-14 02:53:00
11:53 PM,55.0,27.0,34,30.17,10.0,WNW,8.1,-,N/A,,Clear,290,2013-03-14 03:53:00